Location: B�hl
(48.6968°N, 8.1352°E)
Time: 22:38:35
(UTC+00:00)

Cosmos 1733 Rocket - Pass Details

Date: 08 March 2021
Orbit: 604 x 628 km, 82.5° (Epoch: 20 April)

Event Time Altitude Azimuth Distance (km) Brightness Sun altitude
Rises 18:20:16 0° 149° (SSE) 2,857 6.1 -10.4°
Reaches altitude 10° 18:22:56 10° 132° (SE) 1,963 5.2 -10.8°
Maximum altitude 18:26:04 20° 86° (E) 1,443 4.3 -11.3°
Drops below altitude 10° 18:29:13 10° 40° (NE) 1,985 5.3 -11.9°
Sets 18:31:56 0° 23° (NNE) 2,901 6.3 -12.3°
